Погода в Угуте

Погода в Угуте : погода сейчас, прогноз погоды и архив. Всё, что Вы хотите узнать о погоде в Угуте!

Поиск расширенной информации на нашем сайте:

Другие новости

Новости СМИ2

Главная страница сайта

Новости сайта

03.07.2017

Напоминаем, что на нашем специализированном сайте Метеоцентр.Азия вы можете получить высокодетализированные автоматические прогнозы погоды по пунктам России, СНГ и мира в авиационном формате (включающие направление и скорость ветра, видимость, явления погоды, количество и форму облачности, нижнюю и верхнюю границу облачности).

Рекомендуем: строительство каркасных домов Екатеринбург

Погода в Угуте - сегодня

Время (UTC), дата Ветер
(°,м/с) 
Видим.   Явления Облачность Т
(°С)
Тd
(°С)
f(%) Тe
(°С)
Pmin
(гПа)
dP
(гПа)
Po
(мм)
O2
(г/м3)
Тmin Tmax R s Состояние
почвы
00 17.05.18 270 (З) 10 км    10/0 средняя 
[Ac As]
-4.9 -10.4 65 -7  1017.8  -0.4  758  312           
03 17.05.18 260 (З) 10 км    10/3 600 м кучево-дожд., средняя 
[Cb cap|Ac As]
-2.6 -9.3 60 -6  1017  -0.7  758  309  -6.8    0.0    влажная 
06 17.05.18 250 (З) 10 км  {ливн. осадки}  10/4 600 м кучево-дожд., средняя 
[Cb cap|As op]
+0.2 -8.8 51 -2  1015.1  -1.8  757  306           
09 17.05.18 230 (ЮЗ) 10 км    9/9 600 м кучево-дожд. 
[Cb cap]
+2.5 -7.7 47 +1  1013.4  -1.6  755  302           
12 17.05.18 240 (ЮЗ) 10 км  в посл. час ливневой снег  9/9 600 м кучево-дожд. 
[Cb cap]
+3.2 -6.8 48 +2  1012  -1.4  754  301           
15 17.05.18 190 (Ю) 4000 м  слаб. снег  10/0 средняя 
[As op]
-0 -1.3 91 +1  1010.2  -1.9  753  304    +3.5  0.8     
00 18.05.18 360 (С) 5-10{12}  10 км  слаб. снег [диам. отлож. мокр. снега 7 мм]  10/8 300 м средняя 
[Frnb|As op]
-4 -5.2 91 -8  1004.8  0.3  749  307           
03 18.05.18 360 (С) 6-11{12}  4000 м  слаб. снег [диам. отлож. мокр. снега 0 мм]  10/6 300 м средняя 
[Frnb|As op]
-3.5 -5.2 88 -8  1007  2.2  751  307  -4.1    11  равномерный
сухой снег
100% 
18 18.05.18 330 (СЗ) 10 км    ясно 
-3.5 -9.9 61 -5  1021.7  1.6  761  312           
21 18.05.18 310 (СЗ) 10 км    ясно 
-6 -9.4 77 -6  1022.6  0.8  762  315           
00 19.05.18 320 (СЗ) 10 км    8/0 верхняя 
[Ci fib]
-5.1 -8.5 77 -6  1023.3  0.7  763  314           
03 19.05.18 310 (СЗ) 10 км    10/10 1000 м 
[Sc]
-2.1 -7.6 66 -3  1024.4  1.2  764  311  -6.4      мокрый или
старый снег
50-90% 
06 19.05.18 320 (СЗ) 10 км    10/10 1000 м 
[Sc]
-0.3 -6.5 63 -1  1024.9  0.5  764  309           
09 19.05.18 170 (Ю) 10 км    3/0 верхняя 
[Ci fib]
+4.6 -5.8 47 +4  1023.9  -0.9  763  303           
12 19.05.18 200 (Ю) 10 км    4/0 верхняя 
[Ci fib]
+8.1 -4.4 41 +9  1022.9  -0.9  763  299           
18 19.05.18 тихо ()   10 км    3/0 верхняя 
[Ci fib]
+1.7 -4.2 65 +2  1021.5  -0.3  761  305           
21 19.05.18 150 (ЮВ) 10 км    3/0 верхняя 
[Ci fib]
+1.6 -4.5 64 +2  1020  -1.5  760  305           
00 20.05.18 170 (Ю) 10 км    9/0 средняя, верхняя 
[Ac lent|Cc]
+3 -5.1 55 +2  1018.1  -1.9  759  303           
03 20.05.18 170 (Ю) 10 км    10/0 средняя, верхняя 
[Ac trans|Cc]
+9 -7.3 31 +8  1014.7  -3.2  756  296  -0.1      мокрый или
старый снег
10-40% 
06 20.05.18 160 (Ю) 3{10}  10 км    10/0 средняя 
[Ac As]
+10.1 -4.1 37 +10  1011.7  -3  754  294           
15 20.05.18 190 (Ю) 10 км  {ливн. осадки}  8/0 средняя, верхняя 
[Ac lent|Ci fib]
+11.9 +7 72 +12  1004.4  -2.6  749  288    +11.9     
18 20.05.18 200 (Ю) 10 км  {ливн. осадки}  9/8 600 м кучево-дожд., средняя 
[Cb cap|Ac cuf]
+11.3 +6 70 +11  1003.1  -1.3  748  288           
21 20.05.18 210 (ЮЗ) 10 км    9/6 600 м кучево-дожд., средняя, верхняя 
[Cb cap|Ac cast|Ci]
+11.1 +9 87 +11  1001.1  -2  746  287           
00 21.05.18 180 (Ю) 10 км  в посл. час ливневой дождь  10/10 600 м кучево-дожд. 
[Cb cap]
+9.8 +8.1 89 +11  1000.4  -0.7  746  289           
03 21.05.18 270 (З) 10 км  слаб. ливневой дождь  10/10 600 м кучево-дожд. 
[Cb cap]
+12.1 +10.7 91 +13  1001.3  0.9  746  286  +9.6    0.7     
Время (UTC), дата Ветер
(°,м/с) 
Видим.   Явления Облачность Т
(°С)
Тd
(°С)
f(%) Тe
(°С)
Pmin
(гПа)
dP
(гПа)
Po
(мм)
O2
(г/м3)
Тmin Tmax R s Состояние
почвы

Для получения пояснительной информации подведите курсор к названию столбца.

ПОГОДА в Угуте - архив

Всё, что Вы хотите узнать о погоде в Угуте - удобно и подробно!

Выберите нужную дату (начиная с 1 января 2015* года) и нажмите кнопку "Найти".
Будут отображены архивные сводки погоды по пункту Угут, начиная с указанной даты.


Отображать данные в формате CSV (для использования в таблицах Excel)


Внимание! Наш архив погоды предназначен исключительно для личного некоммерческого использования в познавательных целях. Если Вам необходимы официальные справки о состоянии погоды (для производственных, юридических, коммерческих и т.п. целей), обращайтесь в органы Росгидромета.

*Примечание: данная дата относится к архиву по метеостанциям СССР (Россия, СНГ, Балтия).
Архив по метеостанциям Зарубежной Европы и Азии (кроме Китая) хранится 10 дней, по другим регионам земного шара (Китай, Африка, Америка, Австралия, Океания) - 1 день.

Угут - район местоположения метеостанции


Название, широта, долгота, высота метеостанции:
Угут 60.5°ш. 74°д. 48 м над ур. моря [Российская Федерация]

Дополнительная информация

В oтличие oт бoльшинства пoгoдных сайтoв мы публикуем пoдрoбную метеoинфoрмацию в детальнoм прoфессиoнальнoм фoрмате.

Характеристики температуры и влажнoсти вoздуха измеряются на высoте 2 м в тени вдали oт зданий и деревьев.
Скoрoсть ветра измеряется на высoте 10 м (на урoвне рoста челoвека скoрoсть ветра ниже в 1.5-2 раза). Если метеoстанция нахoдится в гoрoде или в лесу, тo скoрoсть ветра занижена на 2-4 м/с пo сравнению с oткрытым местoм. Скoрoсть ветра над акватoриями крупных рек и oзёр, а также на вершинах хoлмoв на 2-5 м/с выше, чем в oбычных услoвиях.
Атмoсфернoе давление в разных тoчках местнoсти мoжет значительнo oтличаться oт давления на метеoстанции, в зависимoсти oт услoвий рельефа (при пoдъёме на 10 м давление пoнижается примернo на 1 мм рт.ст.).